Location: �clusier
(49.9361°N, 2.7869°E)
Time: 04:34:55
(UTC+00:00)

USA 267 - Visible Passes

Search period start: 17 October 2021 00:00
Search period end: 27 October 2021 00:00
Orbit: 1101 x 1106 km, 123.0° (Epoch: 02 September)

Date Brightness Start Highest point End Pass type
(mag) Time Alt. Az. Time Alt. Az. Time Alt. Az.
17 Oct 5.1 17:49:26 10° S 17:55:04 30° SW 18:00:42 10° WNW visible
18 Oct 5.7 18:52:24 10° SSW 18:56:00 15° WSW 18:59:36 10° W visible
19 Oct 5.0 18:07:01 10° S 18:12:37 30° SW 18:18:15 10° WNW visible
20 Oct 4.1 17:23:07 10° SSE 17:29:29 52° SW 17:35:53 10° WNW visible
20 Oct 5.7 19:10:01 10° SSW 19:13:34 15° WSW 19:17:08 10° W visible
21 Oct 5.0 18:24:35 10° S 18:30:11 30° SW 18:35:48 10° WNW visible
22 Oct 4.1 17:40:41 10° SSE 17:47:03 52° SW 17:53:26 10° WNW visible
22 Oct 5.6 19:27:37 10° SSW 19:31:08 15° WSW 19:34:40 10° W visible
23 Oct 4.9 18:42:10 10° S 18:47:45 30° SW 18:53:22 10° WNW visible
24 Oct 4.0 17:58:15 10° SSE 18:04:37 52° SW 18:11:00 10° WNW visible
24 Oct 5.6 19:45:13 10° SSW 19:48:42 15° WSW 19:52:12 10° W visible
25 Oct 3.4 17:15:06 10° SE 17:21:41 82° SW 17:28:17 10° WNW visible
25 Oct 4.8 18:59:44 10° S 19:05:18 29° SW 19:10:55 10° WNW visible
26 Oct 4.0 18:15:49 10° SSE 18:22:10 51° SW 18:28:33 10° WNW visible
26 Oct 5.5 20:02:49 10° SSW 20:06:16 15° WSW 20:09:44 10° W visible
